Location: Les Salelles
(44.4192°N, 4.1044°E)
Time: 12:14:33
(UTC+00:00)

Tsikada Rocket - Pass Details

Date: 20 January 2021
Orbit: 958 x 1009 km, 82.9° (Epoch: 06 March)

Event Time Altitude Azimuth Distance (km) Brightness Sun altitude
Rises 16:53:14 0° 189° (S) 3,707 7.6 -3.5°
Reaches altitude 10° 16:55:45 10° 190° (S) 2,755 6.9 -3.9°
Maximum altitude 17:02:05 81° 278° (W) 1,005 4.3 -4.9°
Drops below altitude 10° 17:08:23 10° 6° (N) 2,737 6.1 -6.0°
Sets 17:10:54 0° 8° (N) 3,681 6.7 -6.4°
